Location: Karcze
(52.0945°N, 22.4786°E)
Time: 00:23:50
(UTC+00:00)

A-11 Canister half - Pass Details

Date: 05 August 2021
Orbit: 1515 x 1685 km, 47.2° (Epoch: 19 September)

Event Time Altitude Azimuth Distance (km) Brightness Sun altitude
Rises 21:34:05 0° 287° (WNW) 4,909 12.1 -19.9°
Reaches altitude 10° 21:38:15 10° 272° (W) 3,936 11.3 -20.0°
Maximum altitude 21:45:02 21° 230° (SW) 3,164 10.4 -20.3°
Enters shadow 21:48:12 18° 207° (SSW) 3,348 10.3 -20.4°
Drops below altitude 10° 21:51:51 10° 186° (S) 3,939 - -20.5°
Sets 21:56:04 0° 172° (S) 4,915 - -20.6°
